Location: Perogordo
(40.9285°N, 4.1493°W)
Time: 19:19:55
(UTC+00:00)

Daily predictions for brighter satellites

Satellite Brightness Start Highest point End
(mag) Time Altitude Azimuth Time Altitude Azimuth Time Altitude Azimuth
Cosmos 2322 3.9 18:50:52 10° S 18:56:14 48° ESE 19:01:39 10° NE
Intercosmos 24 4.0 18:55:21 10° N 18:59:00 87° W 19:03:31 10° S
TRACE 4.4 18:57:56 10° NNE 19:01:19 61° ESE 19:04:37 10° S
Cosmos 1400 Rocket 3.8 18:58:13 10° NNE 19:01:24 24° ENE 19:04:31 10° SE
Cosmos 1725 Rocket 4.2 18:56:21 10° S 19:02:31 83° W 19:08:44 10° N
OAO 2 Rocket 4.5 18:58:22 10° WSW 19:02:42 32° SSW 19:07:05 10° SE
CZ-4B R/B 3.7 18:58:36 10° SE 19:03:05 44° ENE 19:07:37 10° N
USA 59 Rocket 1.5 19:00:04 10° N 19:03:09 21° NE 19:07:02 10° E
Aureole 1 Rocket 3.6 19:00:20 10° NNW 19:04:14 50° WSW 19:07:26 10° S
USA 229 DEB 4.1 18:56:52 10° NNW 19:04:26 74° NE 19:12:37 10° SE
USA 229 4.1 18:57:04 10° NNW 19:04:39 73° NE 19:12:47 10° SE
ATLAS CENTAUR R/B 3.3 18:59:56 10° NW 19:04:56 67° SW 19:12:46 10° SSE
Cosmos 1943 Rocket 4.0 19:03:42 10° NNE 19:06:25 14° NE 19:09:09 10° ENE
ACS3 Solar Sail 3.3 19:02:51 10° ESE 19:07:01 18° ENE 19:11:09 10° NNE
Landsat 7 4.1 19:02:54 10° S 19:07:34 72° W 19:12:16 10° NNW
Cosmos 1328 Rocket 4.3 19:10:25 10° NNE 19:14:14 31° ENE 19:18:04 10° SE
Timation 2 Rocket 4.2 19:08:54 10° NNW 19:15:16 85° WSW 19:21:53 10° SSE
Helios 1A 3.1 19:12:08 10° NNE 19:16:05 49° E 19:20:00 10° S
Cosmos 1536 4.3 19:14:43 10° SE 19:17:09 16° E 19:19:36 10° NE
COSMOS 2428 2.8 19:12:32 10° S 19:18:07 60° ESE 19:23:43 10° NNE
Meteor 1-4 Rocket 3.6 19:16:42 10° NNE 19:18:25 15° ENE 19:18:58 15° E
Cosmos 1726 1.3 19:19:43 10° S 19:22:30 88° W 19:25:19 10° N
CARTOSAT-1 4.5 19:20:04 11° SE 19:23:37 29° ENE 19:27:18 10° N
CZ-4 R/B 1.7 19:20:12 10° SE 19:23:45 40° ENE 19:27:23 10° N
USA 290 4.1 19:22:26 10° NNE 19:24:33 16° ENE 19:25:26 14° E
ISS -3.0 19:22:19 10° SSW 19:25:22 33° SE 19:27:43 15° ENE
SKYMED 3 4.3 19:22:02 10° NNE 19:26:10 77° ESE 19:30:16 10° S
Cosmos 2292 Rocket 4.4 19:22:46 10° NNW 19:26:14 40° W 19:29:09 10° SSW
Cosmos 2233 Rocket 4.2 19:21:42 10° S 19:27:48 79° W 19:34:00 10° N
BlueWalker 3 2.9 19:24:49 10° NW 19:28:13 32° NNE 19:30:35 17° E
USA 186 2.7 19:28:32 18° ESE 19:30:16 29° ENE 19:33:06 10° N
Meteor 2-4 Rocket 4.1 19:24:59 10° NNW 19:30:55 73° W 19:36:43 10° S
Cosmos 1626 4.0 19:29:13 10° NNW 19:31:47 26° W 19:34:20 10° SSW
Cosmos 1151 Rocket 3.6 19:27:56 10° NNW 19:32:07 58° W 19:36:16 10° S
CZ-4B DEB 4.2 19:27:52 10° SSE 19:33:21 71° ENE 19:38:51 10° N
SAR-Lupe-2 3.9 19:30:00 10° S 19:33:32 68° W 19:37:06 10° NNW
Cosmos 1674 2.4 19:30:45 10° N 19:34:01 50° E 19:36:56 12° SSE
Cosmos 1733 4.3 19:34:15 20° E 19:34:15 20° E 19:36:46 10° NE
Cosmos 44 Rocket 3.1 19:29:48 10° NNW 19:34:33 88° ENE 19:38:55 12° SSE
Resurs 1-3 3.7 19:31:50 10° S 19:36:09 77° WSW 19:40:30 10° NNW
USA 306 3.4 19:34:03 10° WSW 19:36:53 41° NNW 19:40:14 10° NE
Cosmos 2278 Rocket 3.0 19:32:14 10° N 19:37:20 33° ENE 19:40:33 19° ESE
NOSS 0 Rocket 4.0 19:32:01 10° S 19:38:01 53° ESE 19:44:05 10° NE
PAYLOAD B 4.3 19:33:36 10° SSE 19:39:05 61° ENE 19:44:37 10° N
CZ-4B R/B 3.5 19:34:11 11° SE 19:39:09 45° ENE 19:44:17 10° N
Cosmos 1464 Rocket 4.4 19:35:10 10° SSE 19:40:58 41° E 19:46:50 10° NNE
Cosmos 1842 3.3 19:41:56 10° N 19:45:25 44° E 19:47:10 24° SE
CZ-4B R/B 2.6 19:42:56 10° SSE 19:46:40 78° ENE 19:50:38 10° N
Iridium 4 Rocket 3.2 19:42:41 10° N 19:46:50 72° W 19:50:58 10° S
SL-08 R/B 4.1 19:43:45 10° N 19:48:35 57° WNW 19:53:22 10° SSW
Meteor 1-14 Rocket 4.1 19:44:36 10° S 19:50:06 73° E 19:55:38 10° NNE
Okean 3 Rocket 3.7 19:46:40 10° SSE 19:50:59 49° E 19:55:18 10° NNE
Lacrosse 4 Rocket 1.6 19:47:03 10° NNW 19:51:23 74° WSW 19:54:43 16° SSE
USA 276 4.1 19:50:22 10° NNW 19:52:13 16° NNE 19:53:02 14° NNE
Cosmos 1356 Rocket 3.8 19:48:18 10° N 19:52:18 43° ENE 19:53:58 28° SE
ARGOS Delta rocket 3.9 19:47:49 10° SSE 19:53:00 89° WSW 19:57:55 10° N
BREEZE-M DEB (TANK) 4.5 19:52:27 10° S 19:53:20 18° S 19:53:20 18° S
Meteor 1-11 Rocket 4.1 19:49:44 10° SSE 19:54:58 40° E 20:00:08 10° NNE
Okean O Rocket 2.3 19:54:50 29° ESE 19:56:12 36° ENE 20:00:15 10° N
Cosmos 1707 2.7 19:52:47 10° N 19:56:15 49° E 19:57:09 38° SE
NOSS 2-1 (E) 3.8 19:54:42 10° NNW 19:58:44 60° NE 20:01:15 29° SE
Cosmos 2034 Rocket 4.4 19:57:25 16° SSE 20:01:52 39° E 20:07:32 10° NNE
Cosmos 2237 Rocket 2.2 19:56:43 10° S 20:02:09 54° ESE 20:07:37 10° NNE
Cosmos 1515 Rocket 3.7 20:00:06 10° N 20:04:19 49° E 20:05:32 37° SE
Cosmos 1072 Rocket 4.5 19:59:22 10° S 20:05:43 71° E 20:12:06 10° NNE
GEOS 3 Rocket 3.7 20:03:09 21° SSE 20:06:43 77° SW 20:11:56 10° NW
Resurs 01 Rocket 1.5 20:03:29 18° SSE 20:06:44 88° ENE 20:11:11 10° NNW
NOSS 2-1 (D) 3.6 20:03:19 10° NNW 20:07:22 76° NE 20:09:41 33° SE
Cosmos 1125 Rocket 4.1 20:02:41 10° N 20:07:30 37° ENE 20:08:40 33° E
Meteor 2-10 4.2 20:02:35 10° S 20:07:57 57° E 20:13:31 10° NNE
CSL-04 Rocket 3.5 20:06:26 20° SSE 20:10:10 75° ENE 20:15:29 10° N
KORONAS-FOTON 4.1 20:12:59 10° NNW 20:16:39 62° W 20:18:30 26° SSW
Okean-O 3.4 20:17:13 34° ENE 20:17:13 34° ENE 20:21:00 10° N
Cosmos 1500 Rocket 4.2 20:18:47 36° ENE 20:18:47 36° ENE 20:22:00 10° NNE
USA 215 4.3 20:21:26 24° SSE 20:21:26 24° SSE 20:24:43 10° S
Terra 3.4 20:31:44 21° NE 20:31:44 21° NE 20:34:14 10° NNE
Cosmos 1980 3.7 20:25:39 10° SSW 20:31:19 82° WNW 20:37:02 10° NNE
Cosmos 2208 Rocket 3.9 20:29:55 34° S 20:32:05 62° ESE 20:37:20 10° NNE
Cosmos 1408 Rocket 3.4 20:32:57 63° S 20:33:39 85° E 20:38:04 10° N
Cosmos 2369 Rocket 4.2 20:32:33 10° NNE 20:35:31 14° NE 20:35:41 14° NE
In-Cosmos 22 4.1 20:33:40 10° N 20:39:24 89° W 20:41:18 44° S
NOSS 3-3 (C) 3.5 20:36:16 10° SSW 20:41:25 67° ESE 20:47:25 10° NE
Cosmos 1315 Rocket 3.6 20:45:13 10° N 20:48:01 44° N 20:48:01 44° N
ACS3 Solar Sail 1.9 20:47:14 33° S 20:50:17 78° WSW 20:56:44 10° NNW
Cosmos 1943 Rocket 1.9 20:45:28 10° NNW 20:51:01 83° ENE 20:51:28 75° SE
USA 59 Rocket 1.1 20:48:32 10° NW 20:52:42 47° WSW 20:53:44 41° SSW
NOSS 3-3 (A) 3.6 20:51:31 10° SW 20:56:46 88° WNW 21:02:52 10° NE
CZ-4 R/B 4.2 20:56:37 10° WSW 20:58:28 13° W 21:00:20 10° WNW
Cosmos 1428 Rocket 4.3 20:53:26 10° N 20:59:34 89° E 21:00:34 65° S
SL-16 R/B 4.2 21:05:28 16° NE 21:05:28 16° NE 21:06:31 10° NE
ISS -1.3 20:59:06 10° W 21:00:45 22° WNW 21:00:45 22° WNW
SPOT 5 3.1 21:06:24 61° NNW 21:06:24 61° NNW 21:10:11 10° NNW
BlueWalker 3 3.9 21:02:48 10° WNW 21:04:50 26° W 21:04:50 26° W
Cosmos 2195 Rocket 4.4 21:09:09 10° N 21:15:15 78° W 21:15:44 73° SW
Meteor 1-23 Rocket 4.4 21:15:08 10° NNW 21:20:31 70° WNW 21:20:31 70° WNW
Cosmos 1092 Rocket 3.9 21:14:34 10° N 21:20:55 86° W 21:20:56 86° W
Cosmos 2278 Rocket 3.3 21:16:17 10° NW 21:21:23 36° WSW 21:22:24 33° SW
Cosmos 2026 Rocket 3.9 21:17:01 10° N 21:23:11 80° W 21:23:11 80° W
MOS 1 Rocket 4.2 21:29:07 50° NW 21:29:07 50° NW 21:33:11 10° NNW
Cosmos 1634 Rocket 4.1 21:31:42 75° NW 21:31:42 75° NW 21:37:38 10° N
Okean O Rocket 3.8 21:32:10 20° W 21:32:31 20° W 21:35:51 10° NW
ERS-1 Rocket 4.0 21:36:13 42° NNW 21:36:13 42° NNW 21:39:35 10° NNW
Ariane Rocket 4.4 21:40:38 32° N 21:40:38 32° N 21:43:18 10° N
Cosmos 2237 Rocket 4.3 21:42:05 10° WSW 21:46:31 23° NW 21:50:59 10° N
BREEZE-M DEB (TANK) 4.4 21:56:43 10° WNW 22:07:15 43° NNW 22:07:15 43° NNW
Terra 4.1 22:10:26 21° NW 22:10:26 21° NW 22:12:16 10° NNW
Cosmos 2369 Rocket 3.9 22:14:43 10° NNW 22:17:27 30° NNW 22:17:27 30° NNW
ACS3 Solar Sail 4.4 22:33:48 10° W 22:35:17 11° W 22:36:45 10° WNW
USA 267 4.2 22:37:27 41° NNW 22:37:27 41° NNW 22:41:44 10° NW
SL-16 R/B 4.3 22:47:17 22° NNW 22:47:17 22° NNW 22:50:08 10° N
